Current Version              Previous Version:    01  02  03  04  05  06  07  08  09  10  11  12  13  14  15  16  17  18  19  20  21  22  23  24  25  26  27  28  29  30  
   31  32  33  34  35  36  37  38  39  40  41  42  43  44  45  46  47  48  49  50  51  52  53  54  55  56  57  58  59  60  

[Printable]
309
ASUS44 KFWD 191015
RWRTX
NORTH TEXAS HOURLY WEATHER ROUNDUP
NATIONAL WEATHER SERVICE FORT WORTH TX
500 AM CDT FRI SEP 19 2014

NOTE: "FAIR" INDICATES FEW OR NO CLOUDS BELOW 12,000 FEET WITH NO
SIGNIFICANT WEATHER AND/OR OBSTRUCTIONS TO VISIBILITY.

TXZ118-119-191100-
DALLAS/FORT WORTH METROPLEX

CITY           SKY/WX    TMP DP  RH WIND       PRES   REMARKS
DFW AIRPORT    MOCLDY    69  65  86 S6        29.93R
DALLAS LOVE    MOCLDY    71  66  84 SE6       29.93R
FTW MEACHAM    MOCLDY    72  67  84 SE8       29.92S
DAL-EXECUTIVE  PTCLDY    68  65  90 E5        29.93R
FTW-ALLIANCE   PTCLDY    68  66  93 SE5       29.92R
FTW-NAS-JRB    CLOUDY    75  66  73 E8        29.97R
FTW-SPINKS     CLEAR     67  65  94 CALM      29.95S FOG
ARLINGTON      PTCLDY    69  65  86 CALM      29.93S
GRAND PRAIRIE  PTCLDY    69  66  91 CALM      29.94R
ADDISON        MOCLDY    72  65  78 E3        29.95R
MESQUITE       PTCLDY    67  65  96 CALM      29.94R
LANCASTER      MOCLDY    67  64  92 CALM      29.94S
$$

TXZ091>094-102>105-117-120-121-131>134-191100-
NORTH CENTRAL TEXAS

CITY           SKY/WX    TMP DP  RH WIND       PRES   REMARKS
SHRMAN/DENISON CLEAR     70  66  89 CALM      29.95S
GAINESVILLE    PTCLDY    69  65  86 CALM      29.96R
BOWIE          PTCLDY    68  68  99 CALM      29.95R FOG
BRIDGEPORT     PTCLDY    69  69 100 CALM      29.95S
DECATUR        PTCLDY    69  69  98 E3        29.95R
DENTON         MOCLDY    69  65  86 S5        29.93R
MCKINNEY       MOCLDY    69  66  90 CALM      29.93S
GREENVILLE     PTCLDY    66  64  94 CALM      29.94S
ROCKWALL       PTCLDY    68  67  97 E3        29.92S
TERRELL        CLOUDY    71  70  96 SE6       29.93S
WAXAHACHIE     CLOUDY    68  66  95 CALM      29.94S
CLEBURNE       PTCLDY    70  70 100 E6        29.95R
GRANBURY       CLOUDY    74  71  90 E7        29.94R
$$

TXZ083>090-098>101-113>116-127>130-139>142-154-155-191100-
WESTERN NORTH TEXAS

CITY           SKY/WX    TMP DP  RH WIND       PRES   REMARKS
WICHITA FALLS  PTCLDY    69  67  93 E5        29.93R FOG
WF-KICKAPOO    MOCLDY    70  70  99 E5        29.94S
VERNON         PTCLDY    69  67  93 NE5       29.95R
ABILENE        PTCLDY    70  68  93 E3        29.95R
BRECKENRIDGE   MOCLDY    71  70  98 SE6       29.93S FOG
GRAHAM         PTCLDY    68  67  94 CALM      29.93R
MINERAL WELLS  CLOUDY    71  69  93 SE3       29.92S
STEPHENVILLE   MOCLDY    71  68  89 CALM      29.96S
COMANCHE       FOG       69  69 100 CALM      29.95R VSB 1/4
BROWNWOOD      CLOUDY    70  70 100 E6        29.94S
COLEMAN        CLOUDY    71  69  95 E7        29.94S FOG
BRADY          CLOUDY    68  68 100 E7        29.93S
$$

TXZ143>147-156>162-174-175-191100-
CENTRAL TEXAS

CITY           SKY/WX    TMP DP  RH WIND       PRES   REMARKS
WACO           CLOUDY    70  69  97 E3        29.92R FOG
WACO-MCGREGOR  MOCLDY    72  66  83 NE5       29.93S
HILLSBORO      CLOUDY    70  68  93 CALM      29.93S FOG
CORSICANA      CLOUDY    73  70  90 SE6       29.93S
MEXIA          FOG       71  71 100 CALM      29.91F VSB 1/4
HEARNE         CLOUDY    73  73  97 CALM      29.90S
CAMERON        FOG       73  72  98 NE3       29.89F VSB 3/4
TEMPLE         CLOUDY    72  66  83 N8        29.90F
KILLEEN        CLOUDY    73  72  94 CALM      29.91F
KILLEEN-SKYLRK CLOUDY    72  66  83 NE7       29.90F
FORT HOOD      FOG       73  72  94 NE5       29.91F VSB 3/4
GATESVILLE     CLOUDY    72  72 100 E3        29.94S FOG
HAMILTON       FOG       72  72 100 E10       29.95R VSB 1/4
LAMPASAS       CLOUDY    73  72  97 NE3       29.92S FOG
$$

TXZ095>097-106>112-122>126-135>138-148>153-164>167-191100-
EAST TEXAS

CITY           SKY/WX    TMP DP  RH WIND       PRES   REMARKS
PARIS          CLOUDY    72  64  78 E6        29.95S
SULPHUR SPRNGS PTCLDY    68  67  98 CALM      29.96S
MOUNT PLEASANT CLEAR     68  67  97 CALM      29.95S
GILMER         PTCLDY    68  68 100 CALM      29.95S
MINEOLA        FOG       68  68 100 CALM      29.94S VSB<1/4
TYLER          CLOUDY    72  69  90 E3        29.93S
LONGVIEW       MOCLDY    68  66  93 CALM      29.92S
MARSHALL       MOCLDY    71  68  92 CALM      29.94S
ATHENS         CLOUDY    70  70 100 CALM      29.92S
PALESTINE      CLOUDY    72  72  99 CALM      29.93S
JACKSONVILLE   CLOUDY    69  68  97 CALM      29.94S
HENDERSON      PTCLDY    67  67 100 CALM      29.93F
NACOGDOCHES    CLOUDY    70  68  94 CALM      29.92S
LUFKIN         CLOUDY    75  71  87 NE3       29.90F
$$

SUPPLEMENTAL OBSERVATIONS (CENTRAL)

CITY           SKY/WX    TMP DP  RH WIND       PRES   REMARKS
LAKE TEXOMA      N/A     70  66  88 E3          N/A
CADDO GRASSLND   N/A     66  63  88 CALM        N/A
PAT MAYSE LAKE   N/A     72  70  94 E6          N/A
GREENVILLE       N/A     68  64  88 SE2         N/A
CEDAR HILL       N/A     68  64  88 SE1         N/A
LAKE LIMESTONE   N/A     73  72  94 NE5         N/A
MCGREGOR         N/A     72  68  88 NE5         N/A
TEMPLE           N/A     72  70  94 NE7         N/A
$$

SUPPLEMENTAL OBSERVATIONS (WEST)

CITY           SKY/WX    TMP DP  RH WIND       PRES   REMARKS
MILLERS CREEK    N/A     70  64  83 E3          N/A
LBJ GRASSLAND    N/A     72  66  83 E3          N/A
GRANBURY         N/A     73  68  83 E7          N/A
COMANCHE         N/A     70  68  94 SE3         N/A
HAMBY            N/A     68  66  94 SE2         N/A
IVIE RESERVOIR   N/A     70  66  88 E7          N/A
COLORADO BEND    N/A     70  68  94 E3          N/A
$$

SUPPLEMENTAL OBSERVATIONS (EAST)

CITY           SKY/WX    TMP DP  RH WIND       PRES   REMARKS
CLARKSVILLE      N/A     72  68  88 E3          N/A
TEXARKANA        N/A     72  68  88 NE2         N/A
LINDEN           N/A     73  70  88 CALM        N/A
CADDO LAKE       N/A     66  64  94 CALM        N/A
GILMER           N/A     66  63  88 CALM        N/A
HENDERSON        N/A     66  64  94 NE3         N/A
LUFKIN           N/A     72  68  88 MISG        N/A
S SABINE NF      N/A     72  70  94 NW1         N/A
$$

SUPPLEMENTAL OBSERVATIONS ARE A COLLECTION OF AUTOMATED INSTRUMENTS
THAT ARE MAINTAINED BY A VARIETY OF FEDERAL AND STATE AGENCIES.
CERTAIN ELEMENTS...SUCH AS HUMIDITY VALUES AND SUSTAINED WIND
SPEEDS...MAY BE APPROXIMATED.